Location: Eastlake (historical)
(39.0077°N, 122.6678°W)
Time: 17:52:32
(UTC+00:00)

Meteor 1-4 Rocket - Pass Details

Date: 25 November 2020
Orbit: 449 x 500 km, 81.2° (Epoch: 22 January)

Event Time Altitude Azimuth Distance (km) Brightness Sun altitude
Exits shadow 14:25:18 - 328° (NNW) 1,955 5.2 -7.9°
Reaches altitude 10° 14:26:22 10° 319° (NW) 1,585 4.6 -7.7°
Maximum altitude 14:29:01 21° 269° (W) 1,066 3.8 -7.3°
Drops below altitude 10° 14:31:40 10° 218° (SW) 1,573 5.0 -6.8°
Sets 14:34:03 0° 202° (SSW) 2,441 6.1 -6.3°
